Regional Weather Roundup
Issued by NWS Kansas City/Pleasant Hill, MO

Home | Current Version | Previous Version | Text Only | Print | Product List | Glossary On
Versions: 1 2 3 4 5 6 7 8 9 10 11 12 13 14 15 16 17 18 19 20 21 22 23 24 25 26 27 28 29 30 31 32 33 34 35 36 37 38 39 40 41 42 43 44 45 46 47 48 49 50
000
ASUS43 KEAX 251711
RWREAX

WEATHER ROUNDUP FOR EASTERN KANSAS AND NORTHWEST MISSOURI
NATIONAL WEATHER SERVICE KANSAS CITY/PLEASANT HILL MO
1200 PM CDT SAT OCT 25 2014

KSZ040-057-103>105-MOZ028-029-037-043-251800-
...KANSAS CITY METROPOLITAN AREA...

CITY           SKY/WX    TMP DP  RH WIND       PRES   REMARKS
K.C. INTL      MOSUNNY   72  58  61 E6        30.09F
K.C. DOWNTOWN  SUNNY     72  61  68 E7        30.08F
LEES SUMMIT    SUNNY     73  63  70 E6        30.09F
OLATHE - IXD   SUNNY     73  63  70 NE5       30.09S
OLATHE - OJC   SUNNY     74  63  68 VRB3      30.08S
LAWRENCE       SUNNY     69  62  78 E7        30.09S

$$

MOZ001>008-011>017-020>025-030>033-038>040-044>046-053-054-251800-
...NORTHERN AND CENTRAL MISSOURI...

CITY           SKY/WX    TMP DP  RH WIND       PRES   REMARKS
ST. JOSEPH     SUNNY     72  55  55 NE5       30.09S
MOSBY          SUNNY     73  54  49 E5        30.08F
WHITEMAN AFB   MOSUNNY   67  63  87 N5        30.09R
CLINTON        SUNNY     72  64  78 CALM      30.09S HAZE
SEDALIA        SUNNY     70  63  78 VRB3      30.10S
WARSAW         NOT AVBL
MARSHALL       MOSUNNY   66  66 100 CALM      30.10F
CHILLICOTHE      N/A     72  55  55 CALM      30.09F
MOBERLY        SUNNY     70  63  78 CALM      30.09S
KIRKSVILLE     SUNNY     72  52  49 N6        30.09S

$$

MOZ041-047>049-056>058-063>065-088>090-097-251800-
...EASTERN AND SOUTHERN MISSOURI...

CITY           SKY/WX    TMP DP  RH WIND       PRES   REMARKS
ST. LOUIS INTL SUNNY     75  62  64 NW5       30.05S
SPIRIT OF STL  SUNNY     74  63  68 VRB5      30.04S
COLUMBIA       SUNNY     71  63  75 CALM      30.08S
JEFFERSON CITY SUNNY     72  62  71 SW3       30.07S
MEXICO         SUNNY     75  66  73 N3        30.07S
HANNIBAL       SUNNY     75  48  38 CALM      30.06F
ROLLA          SUNNY     71  62  73 W3        30.06F
LEBANON        SUNNY     75  63  64 W5        30.10S
OSAGE BEACH    SUNNY     73  61  64 SW5       30.08S
SPRINGFIELD    SUNNY     75  62  64 W7        30.08F
BRANSON        SUNNY     79  63  57 NW6       30.11F
NEVADA         SUNNY     75  64  69 NW3       30.09S
JOPLIN         SUNNY     75  63  66 W7        30.09F
WEST PLAINS    SUNNY     74  61  63 CALM      30.09F

$$

IAZ060-094-KSZ022-034>040-054-083-096-NEZ052-066-093-251800-
...KANSAS...SOUTHEAST NEBRASKA AND IOWA...

CITY           SKY/WX    TMP DP  RH WIND       PRES   REMARKS
TOPEKA         SUNNY     73  64  73 E7        30.08F
MANHATTAN      SUNNY     73  64  73 NE6       30.06F
EMPORIA        SUNNY     74  64  71 SE7       30.07F
CHANUTE        SUNNY     74  65  73 SW5       30.08F
WICHITA        SUNNY     77  62  59 E5        30.06F
OMAHA          MOSUNNY   68  42  38 NE8       30.12S
LINCOLN        SUNNY     66  46  48 E7        30.13S
FALLS CITY     SUNNY     71  50  47 E8        30.09S
LAMONI         SUNNY     68  46  45 NE9       30.10S
DES MOINES     PTSUNNY   68  42  38 N7        30.10S

$$




USA.gov is the U.S. government's official web portal to all federal, state and local government web resources and services.